FW8742 Weather Reports


time (UTC)temp
F
wind
direction
speed
knots
gust
knots
rain 1hr
in
rain 24hr
in
rain mn
in
humidity
%
barometer
mb
20260504220113 62 39 6.1 13.0 0.00 0.00 0.00 43 1011.8
20260504214551 64 55 4.3 13.9 0.00 0.00 0.00 42 1011.8
20260504213102 62 132 7.0 13.9 0.00 0.00 0.00 41 1011.8
20260504211550 63 40 7.0 14.8 0.00 0.00 0.00 43 1011.8
20260504210048 63 57 7.8 13.9 0.00 0.00 0.00 41 1011.9
20260504204601 63 31 4.3 13.0 0.00 0.00 0.00 45 1011.8
20260504203048 65 36 5.2 13.0 0.00 0.00 0.00 42 1011.7
20260504201544 64 47 6.1 11.3 0.00 0.00 0.00 41 1012.1
20260504200057 63 10 5.2 9.6 0.00 0.00 0.00 41 1012.0
20260504194548 63 24 6.1 11.3 0.00 0.00 0.00 41 1012.1
20260504193048 64 64 2.6 8.7 0.00 0.00 0.00 40 1012.1
20260504191552 63 42 2.6 7.8 0.00 0.00 0.00 43 1012.3
20260504190048 62 106 3.5 10.4 0.00 0.00 0.00 42 1012.4
20260504184558 61 18 3.5 10.4 0.00 0.00 0.00 44 1012.8
20260504183059 61 45 4.3 14.8 0.00 0.00 0.00 44 1012.8
20260504181547 60 300 3.5 9.6 0.00 0.00 0.00 43 1012.9
20260504180050 60 67 6.1 12.2 0.00 0.00 0.00 44 1013.0
20260504174549 59 64 5.2 10.4 0.00 0.00 0.00 44 1013.1
20260504173050 59 94 3.5 11.3 0.00 0.00 0.00 44 1013.2
20260504171557 58 84 6.1 12.2 0.00 0.00 0.00 46 1013.4
20260504081552 44 140 0.0 2.6 0.00 0.00 0.00 75 1011.6
20260504044551 50 222 0.9 1.7 0.00 0.00 0.00 63 1011.2
20260504043057 50 0 0.0 2.6 0.00 0.00 0.00 63 1011.2
20260504041550 50 191 0.0 2.6 0.00 0.00 0.00 62 1011.2
20260504040050 51 218 0.0 1.7 0.00 0.00 0.00 63 1011.1
20260504034551 52 216 0.0 1.7 0.00 0.00 0.00 61 1010.9
20260504033049 54 0 0.0 3.5 0.00 0.00 0.00 56 1010.7
20260504031554 55 195 0.9 2.6 0.00 0.00 0.00 56 1010.4
20260504030048 57 166 0.0 3.5 0.00 0.00 0.00 48 1010.1
20260504024554 58 220 0.9 2.6 0.00 0.00 0.00 50 1009.9
20260504023049 59 192 0.9 2.6 0.00 0.00 0.00 45 1009.9
20260504021549 61 159 0.9 2.6 0.00 0.00 0.00 45 1009.7
20260504020135 64 203 0.9 1.7 0.00 0.00 0.00 42 1009.6
20260504014603 66 203 2.6 5.2 0.00 0.00 0.00 35 1009.7
20260504013103 70 270 2.6 7.0 0.00 0.00 0.00 34 1009.9
20260504011549 71 0 0.9 6.1 0.00 0.00 0.00 32 1010.0
20260504010048 72 203 2.6 7.8 0.00 0.00 0.00 28 1010.2
20260504004616 73 239 1.7 5.2 0.00 0.00 0.00 30 1010.3
20260504003051 73 286 1.7 7.8 0.00 0.00 0.00 27 1010.4
20260504001615 73 167 1.7 10.4 0.00 0.00 0.00 30 1010.4
20260504000056 75 190 4.3 9.6 0.00 0.00 0.00 27 1010.7
20260503234549 74 57 1.7 7.0 0.00 0.00 0.00 28 1010.5
20260503233045 74 202 3.5 7.8 0.00 0.00 0.00 28 1010.7
20260503231543 74 217 3.5 11.3 0.00 0.00 0.00 26 1010.7
20260503230105 75 116 3.5 9.6 0.00 0.00 0.00 25 1011.0
20260503224549 74 122 3.5 8.7 0.00 0.00 0.00 29 1011.2
20260503223048 74 224 2.6 8.7 0.00 0.00 0.00 27 1011.3
20260503221546 74 178 4.3 9.6 0.00 0.00 0.00 32 1011.3